Weather observations for the past three days for
Truth Or Consequences, Truth Or Consequences Municipal Airport
Imperial (Metric)
Date Time (mdt) Wind (mph) Vis. (mi.) Weather Sky Cond. Temperature (ºF) Relative Humidity Wind Chill (°F) Heat Index (°F) Pressure Precipitation (in)
Air Dwpt 6 hour altimeter (in) sea level (mb) 1 hr 3 hr 6 hr
Max. Min.
24 18:53 NE 7 10.00 A Few Clouds FEW120 81 57 44% 81 30.04 1008.1
24 17:53 NW 23 G 39 10.00 Fair and Breezy CLR 80.1 55 98.1 77 42% 80 30.02 1007.7
24 16:53 NW 22 G 36 10.00 Fair and Breezy CLR 81 55 41% 81 30.02 1007.6
24 15:53 NW 21 G 36 10.00 Fair and Breezy CLR 86 54 33% 84 30.03 1007.5
24 14:53 Vrbl 3 10.00 Fair CLR 93.9 50 22% 91 30.03 1006.8
24 13:53 E 16 10.00 Fair CLR 97 50 20% 94 30.05 1007.3
24 12:53 Vrbl 5 10.00 Fair CLR 93.9 50 22% 91 30.08 1008.8
24 11:53 W 3 10.00 Fair CLR 90 52 91 73 27% 87 30.1 1009.7
24 10:53 Calm 10.00 Fair CLR 89.1 53.1 29% 87 30.12 1010.1
24 09:53 Vrbl 6 10.00 Fair CLR 87.1 54 32% 85 30.13 1010.4
24 08:53 E 3 10.00 Fair CLR 82.9 55 38% 82 30.14 1010.7
24 07:53 NW 8 10.00 Fair CLR 79 57 47% 80 30.13 1010.9
24 06:53 NW 7 10.00 Fair CLR 73.9 57 56% 30.12 1010.7
24 05:53 NW 8 10.00 Fair CLR 73 55.9 75.9 72 55% 30.11 1009.9
24 04:53 NW 8 10.00 A Few Clouds FEW120 73.9 55.9 54% 30.1 1009.6
24 03:53 NW 9 10.00 Mostly Cloudy BKN120 75 55.9 52% 78 30.09 1009.0
24 02:53 NW 10 10.00 Fair CLR 73 57 57% 30.11 1009.6
24 01:53 NW 9 10.00 Fair CLR 73 59 62% 30.11 1009.9
24 00:53 NW 9 10.00 Fair CLR 73.9 60.1 62% 30.11 1009.8
23 23:53 NW 10 10.00 Light Rain OVC120 73 64.9 91.9 72 76% 30.12 1010.6 0.01 0.01
23 22:53 SW 9 10.00 Mostly Cloudy FEW070 SCT095 BKN110 79 57.9 49% 80 30.17 1011.8
23 21:53 NW 23 G 33 10.00 Light Rain and Breezy BKN110 80.1 57 45% 80 30.12 1010.1
23 20:53 W 7 10.00 Thunderstorm in Vicinity BKN100 OVC120 82.9 57 41% 82 30.09 1009.1
23 19:53 NE 8 G 20 10.00 Fair CLR 82.9 59 44% 83 30.08 1009.0
23 18:53 E 17 10.00 Thunderstorm in Vicinity FEW090 84.9 57 39% 84 30.07 1008.9
23 17:53 N 10 G 20 10.00 Thunderstorm BKN090 91.9 54 97 88 28% 90 30.05 1007.5
23 16:53 N 16 G 28 10.00 Overcast BKN090 OVC110 91 55 30% 89 30.04 1007.4
23 15:53 NE 9 10.00 Partly Cloudy SCT095 93.9 51.1 23% 91 30.05 1007.6
23 14:53 Vrbl 5 G 16 10.00 Partly Cloudy SCT090 93.9 52 24% 91 30.07 1008.2
23 13:53 Calm 10.00 A Few Clouds FEW085 91.9 52 26% 89 30.1 1009.4
23 12:53 Vrbl 6 10.00 Fair CLR 91 53.1 27% 89 30.13 1010.5
23 11:53 Calm 10.00 Fair CLR 87.1 54 90 73 32% 85 30.16 1011.6
23 10:53 Vrbl 6 10.00 Fair CLR 87.1 55 34% 85 30.17 1012.0
23 09:53 N 8 10.00 Fair CLR 84.9 57 39% 84 30.18 1012.3
23 08:53 N 9 10.00 Fair CLR 81 57 44% 81 30.18 1012.8
23 07:53 N 5 10.00 Fair CLR 77 57.9 52% 79 30.18 1013.0
23 06:53 NW 6 10.00 A Few Clouds FEW110 73 55.9 55% 30.16 1012.6
23 05:53 NW 8 10.00 Fair CLR 73.9 57 75.9 73.9 56% 30.16 1012.0
23 04:53 NW 9 10.00 Fair CLR 73.9 57.9 57% 30.14 1011.7
23 03:53 NW 8 10.00 Fair CLR 75 57.9 55% 78 30.14 1011.8
23 02:53 NW 8 10.00 A Few Clouds FEW120 75 59 58% 77 30.15 1011.8
23 01:53 NW 7 10.00 Fair CLR 75 57 54% 78 30.15 1011.5
23 00:53 NW 5 10.00 Fair CLR 75 57 54% 78 30.17 1012.3
22 23:53 N 6 10.00 Fair CLR 75.9 57.9 84 75 54% 78 30.18 1012.6
22 22:53 N 6 10.00 Fair CLR 75.9 57.9 54% 78 30.18 1012.5
22 21:53 NW 12 10.00 Partly Cloudy SCT120 78.1 57.9 50% 79 30.17 1012.3
22 20:53 NW 8 10.00 Overcast OVC100 79 57.9 49% 80 30.14 1011.8
22 19:53 NW 14 G 26 10.00 Overcast OVC100 79 57 47% 80 30.12 1011.2
22 18:53 NW 21 G 32 10.00 Overcast and Breezy OVC110 81 57 44% 81 30.11 1010.8
22 17:53 NW 13 10.00 Overcast SCT095 OVC120 82.9 59 91.9 81 44% 83 30.11 1010.8
22 16:53 N 12 G 23 10.00 Overcast OVC100 82.9 59 44% 83 30.12 1011.2
22 15:53 NW 18 G 31 10.00 Fair CLR 81 61 51% 82 30.13 1011.5
22 14:53 NW 20 G 31 10.00 Mostly Cloudy SCT070 BKN110 82.9 60.1 46% 83 30.15 1011.9
22 13:53 Vrbl 3 10.00 Partly Cloudy SCT065 89.1 55.9 33% 87 30.15 1011.6
22 12:53 NW 3 10.00 A Few Clouds FEW060 87.1 57 36% 86 30.18 1012.5
22 11:53 Vrbl 5 10.00 Mostly Cloudy BKN050 84.9 59 86 71.1 42% 85 30.19 1013.1
22 10:53 E 13 G 18 10.00 Partly Cloudy SCT047 84 60.1 44% 84 30.2 1013.7
22 09:53 NE 10 10.00 A Few Clouds FEW043 81 60.1 49% 82 30.21 1014.2
22 08:53 NE 6 10.00 Fair CLR 77 61 58% 79 30.22 1014.6
22 07:53 NE 6 10.00 Fair CLR 75 63 66% 77 30.21 1014.5
22 06:53 Calm 10.00 Fair CLR 72 64.9 79% 30.2 1014.4
22 05:53 Calm 10.00 Fair CLR 72 64 73.9 71.1 76% 30.18 1014.0
22 04:53 Calm 10.00 Partly Cloudy SCT120 72 64 76% 30.18 1014.0
22 03:53 N 5 10.00 Overcast BKN080 BKN095 OVC120 72 64.9 79% 30.17 1013.8
22 02:53 Calm 10.00 Overcast OVC120 72 66 82% 30.17 1013.6
22 01:53 Calm 10.00 Fair CLR 73 64.9 76% 30.18 1013.8
22 00:53 Calm 10.00 Mostly Cloudy FEW065 FEW090 BKN110 73 64.9 76% 30.19 1014.2
21 23:53 Calm 10.00 Overcast BKN070 OVC095 73.9 64 77 73 71% 30.19 1014.1
21 22:53 N 5 10.00 Mostly Cloudy FEW080 BKN110 73.9 64.9 74% 30.18 1013.6
21 21:53 Calm 10.00 Fair CLR 75 64 69% 77 30.16 1012.7
21 20:53 W 3 10.00 A Few Clouds FEW120 75.9 63 64% 78 30.14 1012.0
21 19:53 SW 3 10.00 Fair CLR 75.9 64 67% 78 30.13 1012.2
Date Time (mdt) Wind (mph) Vis. (mi.) Weather Sky Cond. Air Dwpt Max. Min. Relative Humidity Wind Chill (°F) Heat Index (°F) altimeter (in) sea level (mb) 1 hr 3 hr 6 hr
6 hour
Temperature (ºF) Pressure Precipitation (in)